Tracking 19796 objects as of 19-Jul-2019
HD Live streaming from Space Station
objects crossing your sky now

KAITUO 1A

Track KAITUO 1A now!
10-day predictions
KAITUO 1A is classified as:


NORAD ID: 40904
Int'l Code: 2015-049F
Perigee: 515.8 km
Apogee: 538.1 km
Inclination: 97.5 °
Period: 95.0 minutes
Semi major axis: 6897 km
RCS: Unknown
Launch date: September 19, 2015
Source: People's Republic of China (PRC)
Launch site: Taiyaun Space Center, China (TSC)
aabbcc
Your satellite tracking list
Your tracking list is empty




NASA's NSSDC Master Catalog

Two Line Element Set (TLE):
1 40904U 15049F   19200.51627804  .00000028  00000-0  49545-5 0  9993
2 40904  97.4664 201.9955 0016134  99.8741  57.3540 15.15376061211664
Source of the keplerian elements: AFSPC